�N����,����,�~����,�C��,���x,�C��,����,���ϕ���,�ő�u�ԕ���,�ő厞����,���˗�,�I�_���x,�n�����x,�ő啗���N��,DTYPE
"22/06/10","00:10",0.0,18.8,83.4,1009.0,297.8,1.5,3.1,332.6,0.00,16.0,20.1,"00:00:48",1
"22/06/10","00:20",0.0,18.7,83.9,1009.0,285.1,1.3,2.1,317.1,0.00,16.0,20.0,"00:10:40",1
"22/06/10","00:30",0.0,18.6,84.3,1008.8,301.6,1.5,2.8,313.8,0.00,15.9,19.8,"00:24:56",1
"22/06/10","00:40",0.0,18.6,84.7,1009.3,291.3,1.2,2.1,320.2,0.00,16.0,19.9,"00:39:12",1
"22/06/10","00:50",0.0,18.7,84.9,1009.3,299.2,1.5,2.4,319.7,0.00,16.1,20.0,"00:45:12",1
"22/06/10","01:00",0.0,18.7,85.0,1009.0,295.6,1.1,1.9,306.8,0.00,16.2,19.8,"00:51:20",1
"22/06/10","01:10",0.0,18.8,85.0,1009.3,315.0,1.7,2.7,314.0,0.00,16.3,19.9,"01:06:24",1
"22/06/10","01:20",0.0,18.9,85.0,1009.3,335.1,1.8,2.9,348.5,0.00,16.4,19.8,"01:18:24",1
"22/06/10","01:30",0.0,18.9,85.0,1009.0,332.3,1.6,2.5,306.9,0.00,16.4,19.8,"01:29:12",1
"22/06/10","01:40",0.0,18.9,85.0,1009.3,307.0,1.5,2.6,341.9,0.00,16.4,19.8,"01:32:16",1
"22/06/10","01:50",0.0,19.0,84.9,1009.3,316.6,1.7,2.7,322.8,0.00,16.4,19.8,"01:41:52",1
"22/06/10","02:00",0.0,19.0,84.8,1009.7,315.2,1.1,1.6,312.6,0.00,16.4,19.9,"01:51:12",1
"22/06/10","02:10",0.0,19.1,84.7,1009.5,321.1,1.6,2.5,315.9,0.00,16.5,19.6,"02:02:00",1
"22/06/10","02:20",0.0,19.1,84.6,1009.3,322.1,1.3,1.9,340.5,0.00,16.5,19.6,"02:19:36",1
"22/06/10","02:30",0.0,19.1,84.7,1009.5,321.4,1.3,1.9,339.6,0.00,16.5,19.5,"02:20:32",1
"22/06/10","02:40",0.0,19.2,84.6,1009.5,306.6,1.3,2.0,318.6,0.00,16.6,19.8,"02:38:56",1
"22/06/10","02:50",0.0,19.2,84.5,1009.3,320.9,1.6,2.2,337.8,0.00,16.6,19.5,"02:47:12",1
"22/06/10","03:00",0.0,19.2,84.5,1009.0,312.7,1.5,2.4,339.7,0.00,16.6,19.5,"02:58:48",1
"22/06/10","03:10",0.0,19.2,84.5,1009.3,307.8,1.3,2.0,312.2,0.00,16.6,19.6,"03:01:28",1
"22/06/10","03:20",0.0,19.3,84.5,1009.5,302.9,1.3,2.2,323.4,0.00,16.7,19.6,"03:14:24",1
"22/06/10","03:30",0.0,19.3,84.6,1009.7,291.3,1.0,1.7,320.5,0.00,16.7,19.5,"03:29:20",1
"22/06/10","03:40",0.0,19.4,84.7,1010.0,302.1,1.2,1.9,322.3,0.00,16.8,19.6,"03:36:48",1
"22/06/10","03:50",0.0,19.4,84.7,1009.5,315.3,1.3,2.2,310.8,0.00,16.8,19.7,"03:47:04",1
"22/06/10","04:00",0.0,19.4,84.7,1009.7,309.2,1.5,2.2,335.7,0.00,16.8,19.7,"03:58:32",1
"22/06/10","04:10",0.0,19.4,84.8,1010.0,316.3,1.5,1.9,317.6,0.00,16.8,19.7,"04:02:56",1
"22/06/10","04:20",0.0,19.4,84.8,1009.7,327.0,1.7,3.1,332.6,0.00,16.8,19.5,"04:15:52",1
"22/06/10","04:30",0.0,19.3,85.0,1009.7,303.4,1.2,1.8,318.3,0.00,16.8,19.4,"04:21:04",1
"22/06/10","04:40",0.0,19.2,85.3,1010.2,314.5,1.6,2.5,329.2,0.00,16.7,19.5,"04:33:44",1
"22/06/10","04:50",0.0,19.1,85.6,1010.4,327.3,1.6,2.9,331.3,0.00,16.7,19.6,"04:44:48",1
"22/06/10","05:00",0.0,19.0,85.8,1010.4,321.6,1.6,2.4,331.2,0.00,16.6,19.4,"04:53:36",1
"22/06/10","05:10",0.0,18.9,86.1,1010.4,280.9,1.1,1.8,322.7,0.00,16.6,19.5,"05:01:04",1
"22/06/10","05:20",0.0,18.7,86.4,1010.4,307.4,1.1,1.4,327.8,0.00,16.4,19.5,"05:12:48",1
"22/06/10","05:30",0.0,18.6,86.8,1010.7,276.9,1.0,2.0,322.6,0.00,16.4,19.4,"05:29:52",1
"22/06/10","05:40",0.0,18.6,87.2,1010.7,317.9,1.5,2.2,328.0,0.00,16.5,19.6,"05:32:48",1
"22/06/10","05:50",0.0,18.6,87.5,1010.4,312.9,1.2,2.0,316.1,0.00,16.5,19.3,"05:47:20",1
"22/06/10","06:00",0.0,18.6,87.8,1010.9,293.6,1.1,1.8,327.7,0.00,16.6,19.6,"05:55:36",1
"22/06/10","06:10",0.0,18.7,88.1,1010.9,299.1,1.1,1.9,322.1,0.01,16.7,19.3,"06:09:36",1
"22/06/10","06:20",0.0,18.9,88.3,1010.7,328.4,1.5,2.1,326.2,0.02,17.0,19.4,"06:12:56",1
"22/06/10","06:30",0.0,19.1,88.5,1010.9,296.4,1.1,1.7,331.5,0.03,17.2,19.4,"06:21:44",1
"22/06/10","06:40",0.0,19.4,88.5,1010.7,313.0,1.3,1.9,327.1,0.05,17.5,19.4,"06:33:04",1
"22/06/10","06:50",0.0,20.2,88.5,1010.9,324.0,1.0,1.6,311.0,0.06,18.3,19.3,"06:40:08",1
"22/06/10","07:00",0.0,20.8,88.1,1010.7,338.1,0.7,1.6,322.5,0.08,18.8,19.4,"06:53:36",1
"22/06/10","07:10",0.0,21.6,86.9,1010.7,338.1,0.5,1.6,345.0,0.10,19.4,19.2,"07:02:56",1
"22/06/10","07:20",0.0,21.9,86.3,1010.9,260.1,0.3,1.1,249.5,0.12,19.5,19.3,"07:10:24",1
"22/06/10","07:30",0.0,22.7,84.1,1010.4,330.2,0.2,1.1,356.6,0.16,19.9,19.1,"07:22:00",1
"22/06/10","07:40",0.0,23.2,81.5,1010.9,202.8,0.5,1.3,203.3,0.18,19.9,19.4,"07:35:12",1
"22/06/10","07:50",0.0,23.8,77.7,1010.4,9.4,0.7,1.6,3.6,0.19,19.7,19.3,"07:44:00",1
"22/06/10","08:00",0.0,23.9,75.3,1010.2,321.4,0.6,1.4,345.3,0.18,19.3,19.4,"07:51:44",1
"22/06/10","08:10",0.0,24.6,74.1,1010.2,20.8,0.5,1.2,347.8,0.24,19.7,19.6,"08:00:02",1
"22/06/10","08:20",0.0,25.0,72.1,1010.2,56.8,1.0,2.2,13.1,0.26,19.7,19.3,"08:10:32",1
"22/06/10","08:30",0.0,24.7,70.9,1010.0,174.7,1.2,3.1,215.8,0.29,19.1,19.3,"08:27:52",1
"22/06/10","08:40",0.0,24.6,71.1,1010.0,204.3,1.2,2.4,211.4,0.30,19.1,19.3,"08:36:16",1
"22/06/10","08:50",0.0,25.1,71.7,1010.0,138.4,0.7,1.9,209.6,0.31,19.7,19.4,"08:43:20",1
"22/06/10","09:00",0.0,24.5,70.3,1010.2,215.8,1.1,2.4,193.5,0.18,18.8,19.4,"08:54:24",1
"22/06/10","09:10",0.0,24.5,72.3,1009.7,170.4,1.1,2.2,183.8,0.21,19.2,19.4,"09:01:44",1
"22/06/10","09:20",0.0,24.9,72.5,1009.5,161.4,1.0,2.6,166.5,0.27,19.7,19.5,"09:15:28",1
"22/06/10","09:30",0.0,25.7,72.0,1009.0,175.0,0.7,2.6,105.7,0.36,20.3,19.5,"09:22:00",1
"22/06/10","09:40",0.0,26.4,69.2,1009.3,189.1,1.2,3.1,207.8,0.44,20.3,19.6,"09:33:52",1
"22/06/10","09:50",0.0,26.6,65.9,1009.5,134.5,1.1,2.7,126.5,0.37,19.7,19.5,"09:46:08",1
"22/06/10","10:00",0.0,25.3,68.0,1009.3,190.9,1.2,3.9,159.5,0.22,19.0,19.6,"09:56:56",1
"22/06/10","10:10",0.0,25.9,67.2,1008.8,249.3,1.1,3.5,216.9,0.37,19.4,19.6,"10:07:44",1
"22/06/10","10:20",0.0,27.1,64.6,1009.5,92.9,1.1,3.5,222.0,0.52,19.9,19.6,"10:19:12",1
"22/06/10","10:30",0.0,27.2,63.3,1009.5,160.4,1.2,3.9,219.3,0.48,19.7,19.8,"10:23:28",1
"22/06/10","10:40",0.0,27.5,64.7,1009.5,203.5,1.1,2.4,130.1,0.42,20.3,19.7,"10:35:36",1
"22/06/10","10:50",0.0,27.2,61.3,1009.0,202.6,2.1,4.5,191.3,0.54,19.1,19.7,"10:42:48",1
"22/06/10","11:00",0.0,27.3,62.1,1009.3,220.9,1.7,3.5,199.4,0.54,19.4,19.8,"10:51:20",1
"22/06/10","11:10",0.0,28.1,61.6,1009.0,180.1,1.6,3.1,343.0,0.60,20.1,19.7,"11:02:56",1
"22/06/10","11:20",0.0,28.4,59.8,1009.0,201.1,1.3,3.3,100.4,0.59,19.9,19.9,"11:18:08",1
"22/06/10","11:30",0.0,27.9,58.4,1009.5,203.5,2.1,4.5,235.8,0.59,19.0,19.9,"11:29:36",1
"22/06/10","11:40",0.0,28.1,57.6,1009.0,221.5,1.8,4.7,210.0,0.56,19.0,20.0,"11:39:52",1
"22/06/10","11:50",0.0,29.0,57.6,1009.0,186.3,1.2,4.0,205.4,0.61,19.8,19.9,"11:40:02",1
"22/06/10","12:00",0.0,29.3,58.1,1008.8,168.3,1.8,3.6,126.8,0.59,20.3,20.0,"11:58:08",1
"22/06/10","12:10",0.0,29.0,55.6,1008.8,148.8,1.7,4.0,150.0,0.60,19.3,20.2,"12:04:16",1
"22/06/10","12:20",0.0,28.9,54.3,1008.8,234.3,1.6,2.8,243.9,0.63,18.8,20.3,"12:14:56",1
"22/06/10","12:30",0.0,28.8,53.4,1008.6,175.1,2.0,4.0,199.3,0.51,18.4,20.3,"12:20:40",1
"22/06/10","12:40",0.0,29.2,54.1,1008.3,175.1,1.5,3.4,159.3,0.48,19.0,20.2,"12:35:28",1
"22/06/10","12:50",0.0,29.0,55.4,1008.1,179.2,1.3,3.2,173.0,0.43,19.2,20.2,"12:43:04",1
"22/06/10","13:00",0.0,29.3,53.8,1008.6,152.2,1.2,3.2,153.0,0.44,19.0,20.3,"12:55:28",1
"22/06/10","13:10",0.0,29.0,50.5,1008.3,198.7,1.8,5.1,230.9,0.45,17.7,20.4,"13:03:36",1
"22/06/10","13:20",0.0,28.1,52.2,1007.8,197.6,1.5,3.5,221.7,0.17,17.4,20.4,"13:15:52",1
"22/06/10","13:30",0.0,29.1,49.5,1007.8,261.5,1.0,2.2,214.9,0.42,17.5,20.5,"13:27:52",1
"22/06/10","13:40",0.0,30.0,48.1,1007.8,256.7,1.2,3.3,246.3,0.54,17.9,20.4,"13:38:00",1
"22/06/10","13:50",0.0,30.0,46.9,1007.8,224.1,2.0,4.2,184.8,0.54,17.5,20.6,"13:42:32",1
"22/06/10","14:00",0.0,29.2,50.3,1007.8,156.7,1.5,3.2,154.5,0.25,17.8,20.6,"13:57:04",1
"22/06/10","14:10",0.0,28.4,50.4,1007.1,146.8,1.1,2.4,167.2,0.14,17.1,20.6,"14:03:20",1
"22/06/10","14:20",0.0,28.6,50.2,1007.1,196.3,1.2,2.2,183.3,0.19,17.3,20.7,"14:14:00",1
"22/06/10","14:30",0.0,29.7,50.3,1007.4,234.4,1.8,5.0,196.7,0.40,18.3,20.8,"14:22:40",1
"22/06/10","14:40",0.0,29.4,47.3,1007.1,255.9,1.7,4.2,245.4,0.35,17.1,20.7,"14:36:48",1
"22/06/10","14:50",0.0,28.6,50.2,1006.9,195.6,2.3,4.5,208.4,0.21,17.3,20.7,"14:47:28",1
"22/06/10","15:00",0.0,28.9,48.9,1006.9,234.6,1.5,3.1,238.5,0.24,17.1,20.7,"14:57:44",1
"22/06/10","15:10",0.0,28.5,50.9,1006.7,252.6,1.2,3.1,234.9,0.11,17.4,20.9,"15:00:08",1
"22/06/10","15:20",0.0,28.3,53.4,1006.4,231.1,1.6,3.2,250.8,0.09,18.0,20.8,"15:14:40",1
"22/06/10","15:30",0.0,28.1,53.4,1006.7,250.1,1.1,2.4,190.7,0.10,17.8,20.7,"15:23:28",1
"22/06/10","15:40",0.0,28.2,53.5,1006.2,245.5,1.0,2.4,289.1,0.11,17.9,20.8,"15:31:04",1
"22/06/10","15:50",0.0,28.3,54.3,1006.4,239.1,0.7,1.3,246.4,0.10,18.2,20.9,"15:42:32",1
"22/06/10","16:00",0.0,28.7,52.0,1006.7,234.4,0.6,1.4,298.2,0.14,17.9,21.0,"15:57:36",1
"22/06/10","16:10",0.0,29.2,56.5,1006.9,130.1,1.1,2.5,138.0,0.24,19.7,21.1,"16:02:32",1
"22/06/10","16:20",0.0,28.7,55.6,1006.9,106.1,1.0,3.3,112.9,0.18,19.0,20.9,"16:17:52",1
"22/06/10","16:30",0.0,28.5,57.3,1006.9,116.7,1.0,3.1,135.5,0.19,19.3,20.9,"16:25:12",1
"22/06/10","16:40",0.0,28.9,49.2,1006.7,98.5,1.6,4.4,135.4,0.25,17.2,21.0,"16:36:08",1
"22/06/10","16:50",0.0,28.9,46.4,1006.9,178.1,2.1,3.9,199.3,0.21,16.3,21.2,"16:48:00",1
"22/06/10","17:00",0.0,28.8,46.5,1006.7,197.5,2.1,4.0,217.7,0.17,16.2,20.9,"16:54:16",1
"22/06/10","17:10",0.0,28.4,49.7,1006.7,185.3,2.2,4.0,200.2,0.14,16.9,21.0,"17:09:44",1
"22/06/10","17:20",0.0,28.0,50.9,1006.4,193.3,2.2,3.7,226.3,0.10,16.9,21.1,"17:12:40",1
"22/06/10","17:30",0.0,27.8,50.5,1006.4,182.7,2.1,4.2,189.0,0.09,16.6,21.2,"17:26:24",1
"22/06/10","17:40",0.0,27.4,52.0,1006.4,184.0,2.2,3.5,168.4,0.08,16.7,21.1,"17:39:44",1
"22/06/10","17:50",0.0,27.5,51.2,1006.2,203.0,2.1,3.3,234.7,0.07,16.6,21.0,"17:45:04",1
"22/06/10","18:00",0.0,27.4,52.7,1006.2,253.6,1.6,3.2,248.1,0.06,16.9,21.2,"17:51:04",1
"22/06/10","18:10",0.0,27.0,55.0,1006.9,237.8,1.6,3.1,254.8,0.05,17.2,21.1,"18:00:56",1
"22/06/10","18:20",0.0,26.8,55.8,1007.1,244.4,1.6,3.5,241.9,0.04,17.3,21.1,"18:13:28",1
"22/06/10","18:30",0.0,26.5,57.6,1007.1,254.7,1.3,2.9,243.2,0.03,17.5,21.1,"18:22:48",1
"22/06/10","18:40",0.0,26.3,58.5,1007.4,245.2,1.2,2.4,243.5,0.02,17.6,21.1,"18:33:20",1
"22/06/10","18:50",0.0,26.0,59.3,1007.4,235.8,0.7,1.4,291.7,0.01,17.5,21.1,"18:41:12",1
"22/06/10","19:00",0.0,25.6,60.8,1007.6,204.3,1.1,2.6,185.6,0.00,17.5,21.0,"18:53:12",1
"22/06/10","19:10",0.0,25.5,61.9,1008.1,249.7,1.7,3.3,204.9,0.00,17.7,21.1,"19:08:56",1
"22/06/10","19:20",0.0,25.2,62.9,1008.3,261.4,1.3,4.1,236.8,0.00,17.7,21.2,"19:19:36",1
"22/06/10","19:30",0.0,25.1,63.1,1008.8,253.9,1.8,3.6,259.4,0.00,17.6,21.1,"19:27:12",1
"22/06/10","19:40",0.0,24.9,64.4,1008.8,301.3,1.3,2.7,244.0,0.00,17.8,21.1,"19:30:16",1
"22/06/10","19:50",0.0,24.5,65.6,1009.0,330.3,1.7,2.8,324.0,0.00,17.7,21.0,"19:40:40",1
"22/06/10","20:00",0.0,24.3,66.5,1009.3,306.9,1.7,3.6,340.0,0.00,17.7,21.0,"19:53:20",1
"22/06/10","20:10",0.0,24.0,67.0,1009.0,285.5,0.8,1.8,273.2,0.00,17.5,21.1,"20:01:36",1
"22/06/10","20:20",0.0,23.9,66.8,1009.5,292.0,1.5,3.2,302.2,0.00,17.4,21.0,"20:14:32",1
"22/06/10","20:30",0.0,23.8,66.2,1009.7,286.4,1.2,2.8,243.5,0.00,17.2,21.1,"20:20:16",1
"22/06/10","20:40",0.0,23.7,65.8,1009.7,303.1,1.5,3.1,317.0,0.00,17.0,21.1,"20:36:40",1
"22/06/10","20:50",0.0,23.7,65.7,1009.5,308.9,1.5,3.2,244.5,0.00,16.9,21.1,"20:45:04",1
"22/06/10","21:00",0.0,23.5,66.5,1010.0,326.6,1.3,2.0,307.0,0.00,16.9,20.9,"20:50:24",1
"22/06/10","21:10",0.0,23.4,67.0,1009.7,349.8,1.1,1.8,336.6,0.00,17.0,20.9,"21:07:36",1
"22/06/10","21:20",0.0,23.2,67.2,1009.7,354.4,0.5,1.6,348.5,0.00,16.8,21.0,"21:19:20",1
"22/06/10","21:30",0.0,23.3,68.5,1010.0,337.9,1.7,2.6,338.1,0.00,17.2,21.0,"21:29:52",1
"22/06/10","21:40",0.0,22.8,69.6,1009.7,335.5,1.8,2.9,337.9,0.00,17.0,20.9,"21:30:08",1
"22/06/10","21:50",0.0,22.4,70.6,1010.0,295.0,0.7,1.4,315.4,0.00,16.8,20.7,"21:40:32",1
"22/06/10","22:00",0.0,22.2,72.1,1010.4,302.5,1.1,1.6,317.8,0.00,17.0,20.9,"21:56:48",1
"22/06/10","22:10",0.0,21.8,73.8,1010.4,295.5,1.2,2.0,334.1,0.00,17.0,20.6,"22:01:28",1
"22/06/10","22:20",0.0,21.7,74.8,1010.4,304.7,1.5,2.5,319.3,0.00,17.1,20.7,"22:16:56",1
"22/06/10","22:30",0.0,21.6,75.2,1010.4,310.3,1.2,2.0,313.8,0.00,17.1,20.7,"22:20:08",1
"22/06/10","22:40",0.0,21.3,75.8,1010.7,300.7,0.7,1.2,316.5,0.00,16.9,20.7,"22:39:20",1
"22/06/10","22:50",0.0,21.2,76.9,1010.4,294.1,1.1,1.4,298.6,0.00,17.0,20.7,"22:40:48",1
"22/06/10","23:00",0.0,21.1,78.0,1010.7,296.6,1.3,2.0,321.0,0.00,17.2,20.6,"22:52:16",1
"22/06/10","23:10",0.0,20.9,78.4,1010.7,302.7,1.1,1.7,316.5,0.00,17.0,20.7,"23:00:40",1
"22/06/10","23:20",0.0,20.7,79.2,1010.7,305.4,1.2,1.7,339.7,0.00,17.0,20.5,"23:11:12",1
"22/06/10","23:30",0.0,20.5,80.0,1010.4,322.5,1.2,1.7,321.4,0.00,17.0,20.7,"23:21:12",1
"22/06/10","23:40",0.0,20.3,80.6,1010.7,328.3,0.8,1.8,318.6,0.00,16.9,20.5,"23:32:08",1
"22/06/10","23:50",0.0,20.2,81.5,1010.4,291.8,1.2,2.2,337.0,0.00,17.0,20.6,"23:48:32",1
"22/06/10","24:00",0.0,20.2,82.0,1010.9,321.7,2.2,3.1,331.3,0.00,17.1,20.7,"23:57:12",1
